User: anonymous   Login
Location: Unspecified
(0.0000°N, 0.0000°E)
Time: 17:25:03
(UTC+00:00)
Language:

Vela 3B - Orbit

View from above orbital plane
View from above orbital plane
View from above satellite
View from above satellite

Ground track
Ground track

The orbit data is extracted from the following two-line orbital elements,

1 01459U 65058B   15052.27769584 -.00001234  00000-0  00000+0 0  9994
2 01459 003.0841 051.1679 4446469 288.3314 359.3499 00.21415097 39195
Epoch (UTC): 21 February 2015 06:39:52
Eccentricity: 0.4446469
inclination: 3.0841°
perigee height: 59159 km
apogee height: 164104 km
right ascension of ascending node: 51.1679°
argument of perigee: 288.3314°
revolutions per day: 0.21415097
mean anomaly at epoch: 359.3499°
orbit number at epoch: 3919

The dashed part of the orbit path shows where the satellite is in the earth's shadow,  

DLR